Location: Cahas Mountain Overlook
(37.0833°N, 80.1000°W)
Time: 09:38:49
(UTC-04:00)

FO-29 - Pass Details

Date: 28 April 2024
Orbit: 801 x 1320 km, 98.6° (Epoch: 20 May)

Event Time Altitude Azimuth Distance (km) Brightness Sun altitude
Rises 03:21:28 0° 11° (N) 4,268 13.8 -30.9°
Reaches altitude 10° 03:24:09 10° 10° (N) 3,325 13.0 -30.6°
Maximum altitude 03:31:59 78° 286° (WNW) 1,347 10.0 -29.7°
Enters shadow 03:33:11 66° 224° (SW) 1,425 10.0 -29.5°
